QPF
0.00 0.00 0.00 0.00 0.00 0.00 0.00 0.00 0.00 0.00 0.00 0.00 0.00 0.00 0.00 0.00 0.00 0.00 0.00 0.00 0.00 0.00 0.00 0.00 0.00 0.00 0.00 0.00 0.00 0.00 0.00 0.00 0.01 0.00 0.00 0.00 0.00 0.00 0.00 0.00 0.00 0.00 0.00
0.00 0.00 0.00 0.00 0.00 0.00 0.00 0.00 0.00 0.00 0.00 0.00 0.00 0.00 0.00 0.00 0.00 0.00 0.00 0.00 0.00 0.00 0.00 0.00 0.00 0.00 0.00 0.00 0.00 0.00 0.00 0.00 0.00 0.00 0.00 0.00 0.00 0.00 0.00 0.00 0.00 0.00 0.00
0.00 0.00 0.00 0.00 0.00 0.00 0.00 0.00 0.00 0.00 0.00 0.00 0.00 0.00 0.00 0.00 0.00 0.00 0.00 0.00 0.00 0.00 0.00 0.00 0.00 0.00 0.00 0.00 0.00 0.00 0.00 0.00 0.00 0.00 0.00 0.00 0.00 0.00 0.00 0.00 0.00 0.00 0.00
0.00 0.00 0.00 0.00 0.00 0.00 0.00 0.00 0.00 0.00 0.00 0.00 0.00 0.00 0.00 0.00 0.00 0.00 0.00 0.00 0.00 0.00 0.00 0.00 0.00 0.00 0.00 0.00 0.00 0.00 0.00 0.01 0.01 0.01 0.00 0.00 0.00 0.00 0.00 0.00 0.00 0.00 0.00
0.00 0.00 0.00 0.00 0.00 0.00 0.00 0.00 0.00 0.00 0.00 0.00 0.00 0.00 0.00 0.00 0.00 0.00 0.00 0.00 0.00 0.00 0.00 0.00 0.00 0.00 0.00 0.00 0.00 0.00 0.01 0.02 0.02 0.02 0.02 0.01 0.00 0.00 0.00 0.00 0.00 0.00 0.00
0.00 0.00 0.00 0.00 0.00 0.00 0.00 0.00 0.00 0.00 0.00 0.00 0.00 0.00 0.00 0.00 0.00 0.00 0.00 0.00 0.00 0.00 0.00 0.00 0.00 0.00 0.00 0.00 0.00 0.01 0.01 0.03 0.04 0.04 0.03 0.02 0.01 0.01 0.00 0.00 0.00 0.01 0.00
0.00 0.00 0.00 0.00 0.00 0.00 0.00 0.00 0.00 0.00 0.00 0.00 0.00 0.00 0.00 0.00 0.00 0.00 0.00 0.00 0.00 0.00 0.00 0.00 0.00 0.00 0.00 0.00 0.00 0.01 0.01 0.01 0.02 0.03 0.03 0.02 0.01 0.01 0.01 0.01 0.01 0.01 0.01
0.00 0.00 0.00 0.00 0.00 0.00 0.00 0.00 0.00 0.00 0.00 0.00 0.00 0.00 0.00 0.00 0.00 0.00 0.00 0.00 0.00 0.00 0.00 0.00 0.00 0.00 0.00 0.00 0.00 0.01 0.01 0.01 0.01 0.02 0.02 0.01 0.01 0.01 0.02 0.02 0.02 0.02 0.01
0.00 0.00 0.00 0.00 0.00 0.00 0.00 0.00 0.00 0.00 0.00 0.00 0.00 0.00 0.00 0.00 0.00 0.00 0.00 0.00 0.00 0.00 0.00 0.00 0.00 0.00 0.00 0.01 0.01 0.01 0.01 0.00 0.01 0.01 0.01 0.02 0.02 0.03 0.04 0.09 0.11 0.09 0.05
0.00 0.00 0.00 0.00 0.00 0.00 0.00 0.00 0.00 0.00 0.00 0.00 0.00 0.00 0.00 0.00 0.00 0.00 0.00 0.00 0.00 0.00 0.00 0.00 0.00 0.00 0.00 0.01 0.02 0.02 0.02 0.00 0.01 0.01 0.01 0.01 0.01 0.01 0.01 0.02 0.04 0.07 0.06
0.00 0.00 0.00 0.00 0.00 0.00 0.00 0.00 0.00 0.00 0.00 0.00 0.00 0.00 0.00 0.00 0.00 0.00 0.00 0.00 0.00 0.00 0.00 0.00 0.00 0.00 0.01 0.01 0.01 0.01 0.01 0.02 0.02 0.01 0.00 0.00 0.00 0.00 0.00 0.01 0.01 0.03 0.05
0.00 0.00 0.00 0.00 0.00 0.00 0.00 0.00 0.00 0.00 0.00 0.00 0.00 0.00 0.00 0.00 0.00 0.00 0.00 0.00 0.00 0.00 0.00 0.00 0.00 0.00 0.00 0.00 0.00 0.00 0.01 0.01 0.00 0.00 0.00 0.00 0.00 0.01 0.01 0.01 0.02 0.02 0.03
0.00 0.00 0.00 0.00 0.00 0.00 0.00 0.00 0.00 0.00 0.00 0.00 0.00 0.00 0.00 0.00 0.00 0.00 0.00 0.00 0.00 0.00 0.00 0.00 0.00 0.00 0.00 0.00 0.00 0.00 0.00 0.00 0.00 0.01 0.01 0.00 0.00 0.00 0.01 0.01 0.01 0.02 0.02
0.00 0.00 0.00 0.00 0.00 0.00 0.00 0.00 0.00 0.00 0.00 0.00 0.00 0.00 0.00 0.00 0.00 0.00 0.00 0.00 0.00 0.00 0.00 0.00 0.00 0.00 0.00 0.00 0.00 0.00 0.00 0.00 0.00 0.01 0.01 0.00 0.00 0.00 0.00 0.01 0.01 0.02 0.04
0.01 0.01 0.01 0.01 0.02 0.02 0.02 0.01 0.01 0.01 0.01 0.01 0.00 0.00 0.00 0.00 0.00 0.00 0.00 0.00 0.00 0.00 0.00 0.00 0.00 0.00 0.00 0.00 0.00 0.00 0.00 0.00 0.00 0.00 0.00 0.01 0.01 0.01 0.01 0.00 0.01 0.03 0.05
0.01 0.01 0.01 0.01 0.02 0.02 0.02 0.02 0.02 0.01 0.01 0.01 0.01 0.01 0.00 0.00 0.00 0.00 0.00 0.00 0.00 0.00 0.00 0.00 0.00 0.00 0.00 0.00 0.00 0.00 0.00 0.00 0.00 0.00 0.00 0.01 0.01 0.01 0.01 0.01 0.01 0.02 0.03
0.02 0.01 0.01 0.01 0.01 0.01 0.01 0.01 0.02 0.02 0.02 0.02 0.01 0.01 0.01 0.01 0.01 0.01 0.01 0.01 0.01 0.00 0.00 0.00 0.00 0.00 0.00 0.00 0.00 0.00 0.00 0.00 0.00 0.00 0.00 0.01 0.01 0.02 0.02 0.02 0.02 0.02 0.02
0.01 0.01 0.01 0.01 0.01 0.01 0.01 0.01 0.01 0.02 0.03 0.04 0.03 0.02 0.02 0.02 0.02 0.02 0.02 0.01 0.00 0.00 0.00 0.00 0.00 0.00 0.00 0.00 0.00 0.00 0.00 0.00 0.00 0.00 0.01 0.01 0.02 0.03 0.03 0.03 0.03 0.04 0.04
0.01 0.00 0.00 0.00 0.00 0.00 0.00 0.01 0.02 0.02 0.03 0.04 0.05 0.05 0.04 0.04 0.03 0.03 0.01 0.00 0.00 0.00 0.00 0.00 0.00 0.00 0.00 0.00 0.00 0.00 0.00 0.00 0.00 0.00 0.01 0.01 0.02 0.04 0.04 0.04 0.04 0.04 0.04
0.02 0.01 0.01 0.01 0.01 0.01 0.01 0.02 0.04 0.05 0.05 0.05 0.05 0.05 0.05 0.04 0.03 0.02 0.00 0.00 0.00 0.00 0.00 0.00 0.00 0.00 0.00 0.00 0.00 0.00 0.00 0.00 0.00 0.01 0.01 0.01 0.02 0.03 0.04 0.05 0.05 0.05 0.05
0.05 0.05 0.04 0.04 0.05 0.05 0.05 0.05 0.06 0.06 0.06 0.06 0.06 0.05 0.04 0.02 0.01 0.00 0.00 0.00 0.00 0.00 0.00 0.00 0.00 0.00 0.00 0.00 0.00 0.00 0.00 0.00 0.00 0.01 0.01 0.02 0.02 0.03 0.03 0.04 0.05 0.06 0.05
0.07 0.07 0.08 0.09 0.10 0.11 0.11 0.10 0.10 0.09 0.09 0.07 0.07 0.06 0.04 0.02 0.01 0.00 0.00 0.00 0.00 0.00 0.00 0.00 0.00 0.00 0.00 0.00 0.00 0.00 0.00 0.01 0.01 0.01 0.02 0.01 0.02 0.02 0.03 0.04 0.05 0.06 0.07
0.06 0.07 0.09 0.10 0.11 0.12 0.12 0.11 0.10 0.10 0.08 0.07 0.05 0.04 0.02 0.01 0.00 0.00 0.00 0.00 0.00 0.00 0.00 0.00 0.00 0.00 0.00 0.00 0.00 0.00 0.00 0.01 0.02 0.03 0.03 0.02 0.01 0.02 0.04 0.06 0.07 0.08 0.08
0.07 0.07 0.07 0.08 0.09 0.10 0.10 0.10 0.09 0.08 0.07 0.05 0.03 0.01 0.00 0.00 0.00 0.00 0.00 0.00 0.00 0.00 0.00 0.00 0.00 0.00 0.00 0.00 0.00 0.00 0.00 0.01 0.03 0.03 0.02 0.01 0.01 0.02 0.04 0.06 0.08 0.10 0.10
0.07 0.07 0.06 0.06 0.07 0.08 0.08 0.08 0.07 0.06 0.05 0.03 0.01 0.00 0.00 0.00 0.00 0.00 0.00 0.00 0.00 0.00 0.00 0.00 0.00 0.00 0.00 0.00 0.00 0.00 0.00 0.01 0.02 0.02 0.01 0.00 0.00 0.01 0.02 0.05 0.08 0.11 0.13
0.07 0.07 0.07 0.07 0.07 0.06 0.06 0.05 0.04 0.03 0.02 0.01 0.00 0.00 0.00 0.00 0.00 0.00 0.00 0.00 0.00 0.00 0.00 0.00 0.00 0.00 0.00 0.00 0.00 0.00 0.00 0.01 0.02 0.02 0.00 0.00 0.00 0.00 0.01 0.03 0.06 0.09 0.12
MSLP
1006.68 1007.30 1007.93 1008.56 1009.21 1009.90 1010.66 1011.49 1012.40 1013.37 1014.37 1015.34 1016.25 1017.05 1017.73 1018.27 1018.70 1019.07 1019.43 1019.83 1020.31 1020.87 1021.51 1022.17 1022.80 1023.34 1023.72 1023.88 1023.83 1023.57 1023.14 1022.60 1022.00 1021.42 1020.90 1020.45 1020.09 1019.79 1019.52 1019.24 1018.91 1018.52 1018.04
1005.45 1006.13 1006.84 1007.56 1008.29 1009.06 1009.86 1010.73 1011.65 1012.61 1013.60 1014.56 1015.47 1016.28 1016.99 1017.57 1018.06 1018.50 1018.92 1019.37 1019.88 1020.46 1021.11 1021.77 1022.40 1022.95 1023.35 1023.57 1023.58 1023.40 1023.05 1022.59 1022.05 1021.48 1020.93 1020.42 1019.94 1019.50 1019.07 1018.63 1018.15 1017.63 1017.05
1004.04 1004.79 1005.58 1006.40 1007.23 1008.08 1008.96 1009.86 1010.80 1011.77 1012.75 1013.71 1014.62 1015.45 1016.18 1016.82 1017.38 1017.89 1018.37 1018.87 1019.41 1020.01 1020.64 1021.28 1021.90 1022.44 1022.85 1023.10 1023.18 1023.08 1022.83 1022.44 1021.96 1021.42 1020.85 1020.27 1019.68 1019.08 1018.48 1017.86 1017.21 1016.55 1015.86
1002.55 1003.35 1004.21 1005.12 1006.05 1006.98 1007.93 1008.88 1009.86 1010.84 1011.82 1012.79 1013.71 1014.57 1015.35 1016.05 1016.67 1017.25 1017.80 1018.34 1018.91 1019.50 1020.11 1020.72 1021.29 1021.80 1022.21 1022.49 1022.62 1022.60 1022.43 1022.13 1021.71 1021.20 1020.62 1019.97 1019.27 1018.54 1017.77 1016.97 1016.17 1015.37 1014.58
1001.13 1001.93 1002.83 1003.80 1004.80 1005.80 1006.81 1007.83 1008.84 1009.85 1010.85 1011.83 1012.78 1013.67 1014.50 1015.27 1015.97 1016.61 1017.22 1017.80 1018.37 1018.95 1019.52 1020.07 1020.60 1021.06 1021.45 1021.74 1021.90 1021.94 1021.85 1021.63 1021.28 1020.81 1020.22 1019.53 1018.75 1017.89 1016.99 1016.05 1015.11 1014.18 1013.30
999.91 1000.68 1001.58 1002.56 1003.60 1004.66 1005.72 1006.77 1007.82 1008.86 1009.88 1010.89 1011.87 1012.81 1013.69 1014.52 1015.28 1015.99 1016.64 1017.25 1017.82 1018.36 1018.88 1019.37 1019.82 1020.23 1020.58 1020.86 1021.05 1021.13 1021.11 1020.95 1020.67 1020.24 1019.66 1018.95 1018.12 1017.19 1016.18 1015.14 1014.09 1013.08 1012.12
999.01 999.72 1000.58 1001.55 1002.59 1003.66 1004.74 1005.82 1006.89 1007.95 1009.00 1010.03 1011.03 1012.01 1012.93 1013.81 1014.62 1015.37 1016.05 1016.67 1017.23 1017.74 1018.20 1018.61 1018.99 1019.33 1019.64 1019.89 1020.08 1020.20 1020.22 1020.13 1019.90 1019.52 1018.98 1018.27 1017.42 1016.45 1015.40 1014.29 1013.18 1012.10 1011.08
998.52 999.14 999.94 1000.86 1001.88 1002.93 1004.01 1005.09 1006.16 1007.22 1008.26 1009.29 1010.30 1011.29 1012.24 1013.14 1013.98 1014.76 1015.46 1016.08 1016.62 1017.08 1017.49 1017.84 1018.15 1018.42 1018.67 1018.89 1019.07 1019.20 1019.25 1019.20 1019.02 1018.69 1018.18 1017.51 1016.68 1015.71 1014.64 1013.52 1012.37 1011.26 1010.19
998.43 998.97 999.70 1000.56 1001.52 1002.53 1003.57 1004.62 1005.66 1006.68 1007.70 1008.70 1009.68 1010.65 1011.59 1012.49 1013.33 1014.12 1014.82 1015.44 1015.97 1016.40 1016.77 1017.07 1017.32 1017.54 1017.74 1017.92 1018.08 1018.20 1018.26 1018.23 1018.09 1017.79 1017.33 1016.69 1015.89 1014.95 1013.91 1012.79 1011.65 1010.51 1009.41
998.68 999.15 999.80 1000.59 1001.48 1002.43 1003.41 1004.39 1005.37 1006.33 1007.28 1008.21 1009.13 1010.04 1010.94 1011.81 1012.65 1013.42 1014.13 1014.75 1015.28 1015.71 1016.06 1016.34 1016.56 1016.74 1016.90 1017.05 1017.18 1017.28 1017.33 1017.30 1017.17 1016.89 1016.45 1015.85 1015.08 1014.17 1013.16 1012.06 1010.93 1009.78 1008.65
999.15 999.55 1000.13 1000.84 1001.66 1002.53 1003.43 1004.33 1005.21 1006.08 1006.93 1007.76 1008.59 1009.42 1010.25 1011.08 1011.88 1012.65 1013.37 1014.01 1014.57 1015.03 1015.40 1015.69 1015.92 1016.09 1016.24 1016.35 1016.45 1016.52 1016.53 1016.47 1016.31 1016.03 1015.59 1014.99 1014.24 1013.36 1012.36 1011.29 1010.16 1009.01 1007.84
999.66 1000.01 1000.52 1001.16 1001.90 1002.69 1003.51 1004.31 1005.09 1005.84 1006.56 1007.28 1008.00 1008.73 1009.48 1010.26 1011.04 1011.81 1012.56 1013.25 1013.87 1014.40 1014.83 1015.18 1015.44 1015.64 1015.78 1015.88 1015.94 1015.95 1015.91 1015.80 1015.58 1015.24 1014.77 1014.14 1013.38 1012.49 1011.49 1010.41 1009.28 1008.11 1006.92
1000.07 1000.35 1000.80 1001.37 1002.04 1002.76 1003.48 1004.18 1004.85 1005.49 1006.09 1006.69 1007.30 1007.94 1008.62 1009.36 1010.13 1010.93 1011.73 1012.50 1013.22 1013.85 1014.39 1014.82 1015.15 1015.39 1015.55 1015.64 1015.66 1015.62 1015.50 1015.30 1014.99 1014.56 1014.01 1013.32 1012.50 1011.57 1010.54 1009.43 1008.27 1007.07 1005.84
1000.20 1000.42 1000.80 1001.32 1001.93 1002.57 1003.22 1003.85 1004.42 1004.96 1005.46 1005.96 1006.48 1007.05 1007.69 1008.41 1009.21 1010.06 1010.94 1011.82 1012.66 1013.42 1014.09 1014.63 1015.06 1015.36 1015.55 1015.63 1015.61 1015.49 1015.29 1014.97 1014.55 1014.00 1013.33 1012.54 1011.63 1010.62 1009.52 1008.36 1007.14 1005.89 1004.61
999.98 1000.12 1000.44 1000.91 1001.47 1002.07 1002.67 1003.24 1003.76 1004.23 1004.66 1005.10 1005.57 1006.11 1006.75 1007.49 1008.33 1009.27 1010.26 1011.26 1012.24 1013.14 1013.94 1014.61 1015.13 1015.49 1015.71 1015.78 1015.72 1015.53 1015.22 1014.79 1014.23 1013.54 1012.74 1011.81 1010.78 1009.66 1008.46 1007.22 1005.93 1004.61 1003.28
999.34 999.42 999.69 1000.12 1000.66 1001.25 1001.83 1002.38 1002.88 1003.33 1003.76 1004.18 1004.65 1005.21 1005.88 1006.67 1007.60 1008.63 1009.73 1010.87 1011.97 1013.01 1013.93 1014.70 1015.30 1015.72 1015.96 1016.02 1015.91 1015.64 1015.23 1014.68 1013.98 1013.16 1012.21 1011.14 1009.97 1008.72 1007.41 1006.06 1004.69 1003.30 1001.90
998.36 998.39 998.63 999.06 999.60 1000.20 1000.80 1001.38 1001.90 1002.38 1002.84 1003.30 1003.82 1004.43 1005.17 1006.04 1007.06 1008.19 1009.40 1010.64 1011.86 1012.99 1014.00 1014.84 1015.49 1015.94 1016.18 1016.21 1016.06 1015.72 1015.22 1014.55 1013.74 1012.79 1011.70 1010.50 1009.21 1007.83 1006.41 1004.95 1003.48 1002.01 1000.55
997.15 997.16 997.41 997.85 998.43 999.07 999.73 1000.36 1000.95 1001.50 1002.02 1002.57 1003.16 1003.86 1004.69 1005.65 1006.76 1007.97 1009.26 1010.58 1011.86 1013.05 1014.09 1014.96 1015.62 1016.06 1016.28 1016.28 1016.07 1015.67 1015.09 1014.34 1013.44 1012.39 1011.20 1009.89 1008.48 1007.00 1005.47 1003.91 1002.35 1000.80 999.27
995.88 995.91 996.20 996.69 997.33 998.04 998.77 999.49 1000.16 1000.80 1001.42 1002.06 1002.76 1003.55 1004.47 1005.52 1006.69 1007.97 1009.30 1010.64 1011.93 1013.11 1014.14 1014.97 1015.60 1016.00 1016.17 1016.12 1015.87 1015.42 1014.79 1013.99 1013.02 1011.91 1010.65 1009.27 1007.79 1006.23 1004.61 1002.97 1001.33 999.71 998.12
994.75 994.85 995.21 995.77 996.49 997.27 998.08 998.87 999.64 1000.37 1001.09 1001.83 1002.63 1003.51 1004.51 1005.62 1006.84 1008.13 1009.46 1010.77 1012.01 1013.13 1014.08 1014.84 1015.39 1015.72 1015.83 1015.72 1015.42 1014.93 1014.27 1013.45 1012.46 1011.33 1010.04 1008.63 1007.11 1005.50 1003.84 1002.14 1000.43 998.75 997.09
993.96 994.16 994.60 995.25 996.03 996.88 997.75 998.61 999.45 1000.26 1001.06 1001.89 1002.77 1003.72 1004.77 1005.91 1007.14 1008.41 1009.68 1010.92 1012.06 1013.07 1013.91 1014.55 1014.99 1015.22 1015.24 1015.08 1014.73 1014.22 1013.55 1012.73 1011.76 1010.63 1009.37 1007.96 1006.44 1004.82 1003.13 1001.40 999.65 997.92 996.21
993.65 993.96 994.49 995.20 996.03 996.92 997.83 998.73 999.61 1000.47 1001.32 1002.20 1003.13 1004.13 1005.20 1006.34 1007.53 1008.74 1009.93 1011.05 1012.06 1012.93 1013.62 1014.12 1014.42 1014.54 1014.48 1014.24 1013.86 1013.33 1012.67 1011.87 1010.93 1009.85 1008.62 1007.25 1005.77 1004.17 1002.49 1000.75 998.99 997.22 995.46
993.92 994.32 994.92 995.66 996.51 997.40 998.31 999.20 1000.08 1000.95 1001.82 1002.72 1003.66 1004.67 1005.72 1006.83 1007.96 1009.08 1010.16 1011.15 1012.00 1012.71 1013.24 1013.58 1013.75 1013.75 1013.60 1013.30 1012.88 1012.34 1011.69 1010.91 1010.02 1008.99 1007.83 1006.52 1005.09 1003.54 1001.90 1000.19 998.43 996.64 994.85
994.74 995.20 995.83 996.57 997.39 998.24 999.10 999.95 1000.80 1001.64 1002.49 1003.37 1004.30 1005.28 1006.29 1007.34 1008.39 1009.41 1010.36 1011.20 1011.90 1012.45 1012.82 1013.01 1013.05 1012.93 1012.69 1012.33 1011.87 1011.31 1010.67 1009.93 1009.08 1008.11 1007.01 1005.78 1004.42 1002.94 1001.36 999.69 997.97 996.20 994.40
996.00 996.49 997.10 997.80 998.55 999.33 1000.11 1000.89 1001.67 1002.46 1003.26 1004.11 1004.99 1005.92 1006.88 1007.85 1008.80 1009.70 1010.52 1011.22 1011.78 1012.17 1012.39 1012.45 1012.37 1012.15 1011.82 1011.39 1010.89 1010.32 1009.67 1008.95 1008.13 1007.22 1006.18 1005.03 1003.75 1002.36 1000.86 999.28 997.61 995.89 994.11
997.57 998.03 998.59 999.22 999.88 1000.56 1001.25 1001.94 1002.63 1003.35 1004.09 1004.88 1005.70 1006.56 1007.45 1008.33 1009.18 1009.97 1010.66 1011.22 1011.63 1011.89 1011.98 1011.92 1011.73 1011.41 1011.01 1010.52 1009.98 1009.38 1008.72 1008.00 1007.21 1006.34 1005.36 1004.29 1003.10 1001.81 1000.42 998.94 997.37 995.73 994.01
Thickness
5602 5596 5588 5580 5570 5563 5557 5551 5541 5531 5524 5515 5507 5499 5493 5488 5482 5474 5468 5463 5460 5453 5444 5435 5426 5419 5412 5406 5402 5398 5395 5395 5409 5435 5428 5418 5410 5405 5402 5399 5400 5401 5404
5599 5590 5583 5573 5563 5555 5550 5542 5533 5524 5515 5506 5498 5491 5483 5477 5470 5462 5453 5447 5444 5437 5429 5419 5410 5402 5395 5389 5385 5380 5376 5375 5380 5399 5413 5400 5395 5389 5385 5384 5383 5382 5381
5587 5580 5572 5563 5555 5550 5544 5535 5525 5516 5507 5497 5488 5482 5474 5466 5457 5448 5439 5432 5427 5421 5413 5404 5395 5387 5380 5374 5370 5364 5359 5357 5356 5362 5378 5376 5374 5370 5369 5370 5367 5366 5362
5576 5570 5565 5559 5553 5547 5537 5527 5518 5510 5499 5489 5480 5471 5462 5453 5444 5434 5425 5419 5413 5406 5398 5389 5381 5374 5366 5360 5353 5346 5340 5336 5332 5334 5344 5352 5352 5349 5346 5350 5357 5356 5352
5566 5563 5561 5555 5546 5536 5526 5516 5507 5499 5489 5478 5467 5456 5447 5439 5431 5421 5413 5407 5400 5391 5382 5375 5367 5360 5353 5346 5339 5331 5324 5318 5313 5313 5321 5328 5330 5328 5327 5327 5331 5338 5341
5558 5557 5552 5542 5532 5523 5514 5504 5494 5484 5474 5463 5454 5444 5436 5429 5421 5411 5403 5395 5387 5379 5370 5361 5353 5346 5340 5334 5329 5322 5314 5305 5299 5297 5304 5307 5310 5305 5303 5303 5302 5307 5322
5549 5544 5535 5528 5519 5510 5499 5490 5482 5472 5460 5450 5440 5432 5427 5420 5413 5403 5394 5385 5377 5368 5358 5349 5342 5336 5327 5320 5314 5308 5300 5291 5285 5284 5286 5288 5288 5286 5280 5282 5280 5278 5288
5534 5527 5519 5511 5503 5494 5485 5479 5470 5460 5448 5437 5427 5420 5415 5408 5403 5393 5384 5374 5364 5355 5346 5339 5331 5323 5315 5308 5303 5296 5288 5281 5275 5273 5272 5271 5268 5264 5256 5255 5257 5262 5275
5515 5511 5504 5495 5486 5478 5472 5466 5459 5449 5436 5424 5413 5405 5399 5392 5389 5381 5373 5361 5350 5340 5333 5327 5320 5311 5302 5296 5290 5283 5278 5273 5268 5264 5260 5257 5254 5248 5238 5234 5234 5231 5248
5491 5488 5480 5472 5466 5460 5455 5448 5442 5434 5421 5409 5400 5392 5384 5376 5374 5366 5359 5344 5333 5326 5319 5313 5306 5300 5292 5285 5277 5270 5265 5262 5256 5251 5247 5243 5237 5232 5224 5214 5207 5203 5210
5460 5459 5455 5449 5444 5438 5433 5428 5422 5414 5403 5395 5387 5377 5368 5361 5358 5352 5344 5329 5320 5312 5304 5296 5290 5286 5281 5274 5267 5260 5252 5247 5242 5235 5230 5225 5221 5217 5213 5205 5194 5182 5183
5433 5433 5430 5426 5421 5417 5413 5408 5402 5397 5386 5378 5369 5360 5352 5345 5341 5338 5330 5318 5309 5299 5290 5282 5274 5270 5267 5262 5254 5246 5240 5234 5224 5216 5213 5211 5208 5206 5202 5195 5185 5174 5167
5406 5407 5406 5403 5399 5396 5393 5388 5381 5378 5373 5365 5357 5349 5340 5333 5327 5324 5317 5309 5300 5287 5277 5270 5262 5255 5250 5244 5235 5230 5224 5215 5206 5202 5200 5200 5197 5194 5190 5185 5179 5170 5168
5383 5384 5383 5381 5378 5375 5373 5369 5364 5362 5360 5355 5348 5341 5330 5321 5315 5310 5302 5294 5286 5274 5260 5251 5245 5238 5231 5226 5219 5212 5205 5200 5193 5189 5188 5189 5186 5182 5176 5170 5166 5164 5166
5363 5365 5366 5364 5362 5359 5357 5356 5353 5353 5353 5349 5342 5333 5322 5312 5306 5298 5286 5274 5265 5252 5238 5228 5220 5215 5209 5205 5201 5196 5191 5187 5182 5177 5175 5173 5169 5165 5161 5154 5150 5151 5155
5338 5342 5344 5344 5343 5341 5338 5335 5335 5332 5330 5328 5322 5314 5306 5300 5288 5280 5269 5259 5249 5237 5219 5207 5200 5194 5189 5187 5184 5182 5179 5175 5169 5164 5159 5153 5149 5146 5143 5142 5140 5142 5147
5319 5323 5324 5324 5322 5320 5317 5314 5312 5313 5310 5307 5302 5293 5285 5279 5270 5263 5253 5242 5230 5217 5199 5190 5182 5176 5172 5171 5171 5170 5167 5162 5155 5149 5143 5137 5130 5127 5126 5130 5134 5136 5141
5300 5305 5306 5306 5303 5300 5299 5296 5293 5291 5290 5287 5281 5273 5265 5259 5251 5244 5235 5219 5203 5189 5181 5172 5165 5161 5158 5158 5159 5157 5153 5148 5143 5136 5130 5123 5117 5115 5119 5123 5127 5130 5135
5281 5285 5285 5284 5281 5278 5276 5275 5273 5270 5267 5263 5258 5250 5244 5237 5229 5220 5208 5193 5183 5173 5165 5158 5154 5150 5148 5148 5147 5144 5140 5135 5130 5124 5119 5115 5111 5112 5116 5120 5123 5127 5130
5263 5265 5262 5259 5256 5254 5253 5253 5252 5248 5243 5240 5236 5231 5223 5213 5200 5186 5176 5170 5164 5158 5152 5148 5144 5141 5139 5138 5137 5133 5129 5125 5120 5115 5111 5108 5109 5112 5114 5117 5120 5124 5130
5248 5246 5240 5235 5233 5232 5231 5229 5227 5223 5218 5215 5209 5203 5201 5190 5177 5165 5159 5153 5149 5145 5142 5139 5136 5133 5131 5130 5127 5124 5120 5115 5110 5107 5105 5104 5107 5111 5112 5113 5116 5121 5127
5232 5228 5223 5218 5214 5211 5208 5206 5203 5198 5194 5188 5182 5182 5178 5165 5159 5153 5146 5140 5136 5134 5132 5131 5128 5126 5124 5122 5119 5115 5111 5106 5102 5099 5098 5099 5104 5107 5108 5109 5113 5118 5126
5212 5208 5204 5200 5196 5192 5188 5185 5182 5178 5173 5168 5170 5167 5155 5149 5144 5140 5134 5129 5127 5126 5125 5123 5120 5118 5117 5114 5111 5107 5102 5098 5094 5091 5091 5096 5100 5101 5102 5104 5109 5116 5125
5188 5187 5184 5180 5176 5173 5169 5165 5162 5159 5157 5156 5152 5144 5138 5134 5130 5126 5123 5121 5119 5119 5117 5114 5111 5109 5107 5105 5104 5101 5096 5091 5087 5086 5087 5090 5091 5092 5095 5099 5105 5113 5123
5165 5164 5162 5159 5156 5152 5149 5145 5142 5139 5137 5134 5130 5125 5121 5118 5116 5115 5113 5112 5111 5110 5108 5106 5103 5100 5098 5098 5097 5094 5090 5086 5084 5082 5085 5084 5083 5084 5087 5094 5101 5110 5120
5143 5143 5141 5138 5134 5130 5126 5123 5121 5119 5117 5115 5113 5111 5111 5110 5109 5107 5105 5103 5102 5101 5099 5096 5093 5089 5088 5088 5089 5087 5084 5082 5082 5082 5080 5078 5077 5079 5082 5089 5097 5107 5116